Regional Weather Roundup
Issued by NWS Portland, ME

Current Version | Previous Version | Text Only | Print | Product List | Glossary Off
Versions: 1 2 3 4 5 6 7 8 9 10 11 12 13 14 15 16 17 18 19 20 21 22 23 24 25 26 27 28 29 30 31 32 33 34 35 36 37 38 39 40 41 42 43 44 45 46 47 48 49 50
000 ASUS41 KGYX 171310 RWRGYX WEATHER ROUNDUP FOR MAINE AND NEW HAMPSHIRE NATIONAL WEATHER SERVICE GRAY ME 800 AM EST WED JAN 17 2018 MEZ002-005-006-010-012-015-018-020-021-024-026-027-029-171400- MAINE CITY SKY/WX TMP DP RH WIND PRES REMARKS PORTLAND SNOW 25 25 100 VRB5 30.35S VSB 1/2 SANFORD LGT SNOW 26 24 92 N5 30.33F VSB 1 BAR HARBOR LGT SNOW 23 21 92 N6 30.39F VSB 3/4 WISCASSET LGT SNOW 26 25 96 CALM 30.37S FOG FRYEBURG LGT SNOW 22 22 100 CALM 30.33F FOG AUGUSTA LGT SNOW 21 19 92 N7 30.36S FOG WATERVILLE LGT SNOW 21 18 88 NE3 30.31S FOG BANGOR LGT SNOW 22 19 89 CALM 30.37F FOG GREENVILLE N/A 16 15 96 SE6 30.24F MILLINOCKET CLOUDY 16 12 86 CALM 30.37S FOG HOULTON CLOUDY 17 14 88 S6 30.35S PRESQUE ISLE LGT SNOW 9 6 88 CALM 30.35F FOG FRENCHVILLE CLOUDY 5 3 91 E3 30.28S CARIBOU LGT SNOW 6 1 80 CALM 30.32F $$ NHZ002-005-008-009-011-012-014-171400- NEW HAMPSHIRE CITY SKY/WX TMP DP RH WIND PRES REMARKS PORTSMOUTH LGT SNOW 29 28 97 N6 30.30F VSB 5/8 ROCHESTER LGT SNOW 27 26 96 N5 30.31F VSB 1 NASHUA LGT SNOW 29 29 100 NW3 30.31F FOG MANCHESTER LGT SNOW 29 28 96 N5 30.30F VSB 1 CONCORD LGT SNOW 25 23 92 NW5 30.31F FOG PLYMOUTH LGT SNOW 22 21 96 CALM 30.32S VSB 1 BERLIN LGT SNOW 19 17 92 CALM 30.28S FOG WHITEFIELD LGT SNOW 20 18 92 CALM 30.27F FOG JAFFREY LGT SNOW 28 26 92 CALM 30.25F VSB 1 KEENE LGT SNOW 28 27 93 CALM 30.28F FOG LEBANON CLOUDY 26 23 88 N3 30.29F FOG MT WASHINGTON SNOW 9 9 100 W24 N/A VSB 1/16WCI -12 $$ VTZ005-007-008-171400- VERMONT CITY SKY/WX TMP DP RH WIND PRES REMARKS ST JOHNSBURY N/A 21 20 96 MISG 30.29F MONTPELIER CLOUDY 18 17 96 NW3 30.30F BURLINGTON CLOUDY 19 16 88 CALM 30.33S FOG $$ MAZ007-012-024-CTZ003-RIZ002-NYZ038-NYZ072-171400- SOUTHERN NEW ENGLAND AND NY CITY SKY/WX TMP DP RH WIND PRES REMARKS BOSTON LGT SNOW 32 32 100 NE5 30.30F VSB 1 WORCESTER LGT SNOW 28 25 88 NE5 30.23F VSB 1 NANTUCKET CLOUDY 38 38 100 NE9 30.25S PROVIDENCE LGT SNOW 33 33 100 NE6 30.29F VSB 1 HARTFORD LGT SNOW 30 29 96 N7 30.26F FOG ALBANY LGT SNOW 26 22 84 NW7 30.31S VSB 3/4 NEW YORK CITY LGT SNOW 34 32 92 NW12 30.25S FOG $$ ANZ081-ANZ082-ANZ150-NHZ014-MEZ023>029-171400- COASTAL MARINE OBSERVATIONS STATION/POSITION TIME TEMP WIND PRES WAVE AIR SEA DIR/SP/G HT/PER (UTC) (F) (DEG/KT/KT) (MB) (FT/S) MOUNT DESERT ROC 1300 33 40/ 14/ 15 1028.0F MATINICUS ROCK 1200 32 70/ 12/ 14 1027.8F ISLE OF SHOALS 1200 33 160/ 4/ 4 1026.9F JEFFREYS LEDGE 1236 44 N/A 4/ 9 GEORGES BANK BUO 1150 49 53 1029.3 7/10 $$ .............KEY.............. WCI - WIND CHILL TC - TEMPERATURE IN CELSIUS VSB - VISIBILITY IN MILES HX - HEAT INDEX FAIR- INDICATES FEW OR NO CLOUDS BELOW 12,000 FT, WITH NO SIGNIFICANT WEATHER AND/OR OBSTRUCTIONS TO VISIBILITY.

USA.gov is the U.S. government's official web portal to all federal, state and local government web resources and services.